GEFSMA_500_meanwind_090.txt.gz
Wind_Speed
4 4 3 2 2 2 2 2 3 4 4 4 4 4 5 5 7 7 8 8 9 9 9 11 11 12 13 12 12 13 13 13 13 13 12 12 11 10 10 9 8 8 7
5 4 3 2 2 2 2 2 3 3 3 3 3 4 4 5 5 6 7 7 7 8 8 9 10 11 12 12 12 13 13 13 13 13 14 14 13 12 12 11 11 10 9
6 5 4 3 2 2 2 2 2 3 2 2 2 3 3 5 5 6 6 6 7 6 7 8 8 9 11 12 12 12 12 12 13 13 13 14 15 14 14 13 13 12 11
6 5 4 3 3 2 2 2 2 2 2 2 2 2 3 4 5 6 6 6 7 7 6 7 7 8 9 10 11 11 12 12 13 13 14 14 15 15 15 15 15 15 14
7 5 4 4 3 3 3 2 2 2 1 1 1 1 1 2 3 5 5 6 6 6 6 6 6 7 8 9 10 10 11 11 12 13 14 15 15 16 16 16 16 16 16
8 6 5 4 3 3 3 3 3 2 2 1 1 1 1 1 1 2 3 4 5 5 4 4 5 6 8 9 9 10 10 11 12 13 14 14 15 16 16 16 17 17 17
9 7 5 4 4 4 3 3 3 3 3 2 2 2 2 1 1 1 2 3 3 3 4 4 5 6 7 8 9 9 9 10 11 12 13 14 15 16 17 18 17 18 17
10 8 7 6 5 5 4 4 4 4 3 3 3 2 1 1 1 1 1 2 2 3 4 5 5 6 7 8 9 10 11 10 11 11 12 13 13 14 15 16 18 19 19
10 9 8 8 7 6 6 5 5 5 4 4 4 3 2 1 2 2 2 3 4 4 5 6 6 7 7 8 8 9 10 11 11 11 11 12 13 14 15 15 16 18 18
11 11 10 9 8 8 7 7 6 6 5 5 4 4 4 4 4 3 4 4 4 5 6 7 7 8 8 9 9 10 11 12 12 13 13 13 13 14 15 16 16 17 18
12 12 11 11 10 10 9 9 8 8 7 6 6 6 6 6 6 6 6 6 7 7 8 8 9 10 10 11 12 12 13 13 14 15 15 15 15 15 15 16 16 17 18
13 13 13 12 12 11 11 11 10 10 10 9 9 9 9 9 9 9 10 10 10 10 11 11 12 12 13 14 14 14 15 16 16 16 17 17 17 17 17 17 18 18 19
14 14 14 13 14 14 14 14 13 13 13 13 13 13 12 13 13 13 13 14 14 14 15 15 15 16 16 17 17 18 18 19 19 19 19 20 20 20 20 20 20 20 20
15 15 15 15 15 15 16 16 16 16 16 16 16 16 16 16 17 17 17 18 18 18 19 19 19 20 20 21 21 22 22 22 22 23 23 23 23 23 23 23 23 23 23
16 16 16 17 17 17 17 18 19 19 19 19 20 20 20 20 21 21 21 22 22 23 23 23 24 24 25 25 25 26 26 26 26 26 26 26 26 26 26 27 27 26 26
18 18 18 18 18 19 19 20 21 21 22 22 23 23 24 24 24 25 25 26 26 27 27 28 28 29 29 30 30 30 30 30 31 30 30 30 30 30 30 30 30 30 30
19 19 20 20 20 21 22 22 23 23 24 25 25 25 26 27 27 28 29 30 30 31 31 32 33 33 34 34 34 34 35 35 35 35 35 35 34 34 34 34 34 34 34
20 20 21 21 21 22 24 24 25 25 26 26 27 27 28 29 30 31 32 32 33 34 35 36 37 38 38 38 38 38 39 39 39 39 39 39 39 38 38 38 38 38 38
21 21 22 22 23 23 24 25 25 25 27 27 28 29 30 31 33 34 35 35 36 37 37 38 39 41 41 41 42 42 42 42 41 42 43 43 43 43 43 42 42 43 42
21 21 22 22 23 23 24 25 26 27 28 29 30 32 33 34 36 37 37 38 39 40 41 41 41 43 43 44 44 44 44 44 43 44 45 45 46 47 47 47 47 47 47
21 21 22 22 23 24 25 26 28 29 31 32 33 35 36 38 39 40 41 42 42 42 43 44 44 45 46 47 48 47 47 47 47 47 48 48 49 49 49 49 50 50 51
21 22 23 24 25 26 27 28 30 31 33 35 36 37 38 40 41 43 44 44 45 45 46 47 48 48 49 50 50 50 51 51 50 51 52 51 52 52 51 52 52 52 52
22 23 24 26 28 29 30 31 33 35 36 37 39 40 41 41 42 44 44 45 46 46 48 49 50 51 51 51 51 52 53 53 53 53 55 54 54 54 55 56 55 55 56
23 25 26 28 30 31 33 34 36 37 38 39 41 42 43 43 44 45 46 47 48 49 49 50 51 52 52 52 53 53 54 55 55 55 56 56 56 57 58 59 58 58 59
25 27 29 30 32 34 36 37 38 39 41 41 42 43 44 45 45 46 48 48 49 50 51 52 52 53 53 54 54 55 55 56 56 57 59 59 60 61 61 61 62 63 63
28 30 31 33 35 36 38 39 40 41 42 43 43 44 45 46 47 49 50 50 51 52 53 54 55 56 56 56 57 57 58 58 58 59 60 61 63 65 65 65 66 66 66

GEFSMA_500_meanwind_096.txt.gz
Wind_Speed
7 6 6 5 5 4 3 2 2 2 2 3 3 4 4 5 4 4 4 5 5 6 6 7 8 8 10 11 11 11 11 11 11 10 10 10 10 9 8 8 7 7 6
7 7 6 5 3 3 2 2 2 2 2 2 2 3 3 3 4 4 4 4 5 6 6 6 7 7 8 10 10 11 10 10 11 11 11 11 11 10 10 9 9 9 8
7 6 5 5 3 3 3 2 2 2 1 1 2 2 3 3 3 4 4 3 4 4 5 6 6 6 7 8 9 10 10 9 10 11 12 12 11 11 12 12 11 11 11
7 6 5 5 4 3 3 2 2 2 1 1 1 1 2 2 2 3 4 3 3 3 3 4 4 5 5 6 8 8 9 9 9 10 11 12 12 12 12 13 13 12 12
8 7 6 5 5 4 3 2 2 2 1 1 1 1 1 1 1 1 2 2 2 2 2 3 3 4 4 5 6 7 8 9 9 9 10 11 12 13 13 14 14 14 14
9 8 7 6 5 4 3 2 2 1 0 1 1 1 2 3 3 2 1 1 0 0 2 2 2 3 3 4 5 5 6 7 8 9 10 11 12 13 14 15 14 15 15
10 9 7 6 5 5 4 3 2 1 1 1 1 2 3 4 4 4 3 2 2 2 1 2 2 3 3 3 4 5 6 7 7 8 10 10 11 12 13 14 15 16 16
10 10 8 7 6 5 4 3 2 2 1 1 1 1 2 2 3 3 3 3 2 2 2 2 2 3 3 3 4 5 5 6 7 8 8 9 10 11 12 13 14 15 16
12 11 10 8 7 7 5 4 3 3 3 2 1 0 0 1 2 2 2 2 2 3 3 3 3 4 4 4 5 6 6 7 8 8 9 9 9 10 11 12 13 14 15
14 13 11 10 9 8 7 6 5 5 4 4 3 3 3 3 3 3 4 4 4 4 5 4 5 5 6 6 7 7 8 9 9 9 10 10 10 11 11 12 13 14 15
14 13 12 11 10 10 9 8 8 7 6 6 6 6 6 6 6 6 6 6 7 7 7 7 7 8 8 8 8 9 10 10 11 11 12 12 12 13 13 13 13 14 15
15 15 14 12 12 11 11 10 10 10 9 9 9 9 10 10 10 10 10 10 10 10 11 11 11 11 11 11 11 12 13 13 14 14 15 15 15 15 16 16 16 16 16
16 15 14 14 13 13 13 13 13 12 12 12 12 13 13 14 14 14 14 14 14 14 14 15 15 15 15 15 16 16 17 17 18 18 18 18 19 19 19 19 19 19 19
16 16 16 15 15 15 15 15 15 15 15 16 16 16 17 17 18 19 19 19 20 20 19 19 20 20 21 20 21 21 22 22 23 23 23 23 23 23 23 23 23 23 23
17 16 16 17 17 17 16 16 17 17 18 18 19 20 20 21 22 22 23 23 23 24 24 24 24 25 25 26 26 26 27 27 28 28 28 28 28 27 27 27 27 27 27
16 16 17 17 18 18 18 18 19 19 20 21 21 22 23 24 25 25 25 26 27 27 28 28 28 29 29 30 30 31 31 32 32 33 33 32 32 32 32 32 32 32 31
17 18 18 19 19 20 21 21 21 21 22 23 23 24 25 26 27 27 28 28 28 29 30 31 32 33 33 34 34 34 35 35 35 35 36 36 36 36 36 36 36 36 36
18 19 21 20 21 21 22 22 22 23 23 24 25 26 27 28 28 29 29 30 31 32 32 33 35 36 36 37 38 38 38 38 38 38 38 38 38 39 39 39 39 39 39
19 20 20 21 21 22 22 23 23 23 24 24 25 26 27 28 29 30 31 32 33 34 34 35 36 38 38 39 40 40 41 41 41 41 41 41 41 41 42 42 42 42 42
19 20 21 21 22 23 23 24 24 24 24 24 25 26 27 28 29 31 32 33 34 36 37 38 38 39 40 41 41 41 42 43 43 44 44 44 44 44 44 45 46 46 46
20 21 21 21 22 22 23 23 23 24 24 25 26 27 28 29 31 33 35 36 37 39 40 41 41 42 43 43 44 45 46 46 46 47 48 48 48 48 48 47 47 48 49
18 19 20 20 20 21 22 23 24 25 27 28 28 30 30 31 33 35 36 38 39 40 41 43 43 45 45 46 47 47 48 49 49 50 51 51 51 51 50 50 50 50 51
17 18 19 20 21 22 22 24 25 27 29 30 32 33 34 34 36 38 40 41 42 43 44 45 46 47 48 49 50 50 52 53 53 52 53 52 52 52 53 52 52 52 52
18 18 19 20 22 23 25 27 29 30 32 34 35 36 38 39 40 42 43 43 45 46 47 47 49 50 52 53 53 54 55 55 55 55 56 56 55 54 54 54 54 54 54
21 22 23 24 25 27 29 30 32 33 34 36 37 38 39 40 42 44 45 46 47 49 50 51 53 54 55 56 57 58 58 58 58 58 58 59 58 57 56 56 57 57 58
26 26 27 28 29 30 31 32 34 36 37 39 40 41 42 43 45 47 48 50 51 52 53 55 56 57 59 60 61 61 61 61 61 61 61 61 61 61 59 58 58 58 58

GEFSMA_500_meanwind_102.txt.gz
Wind_Speed
7 6 5 5 4 3 3 2 2 1 1 1 2 2 2 2 2 2 2 3 4 4 5 6 6 7 8 8 9 10 11 10 10 10 10 10 10 10 10 9 9 8 8
7 6 5 4 4 3 2 1 1 1 1 1 1 1 2 2 2 2 3 3 3 4 5 5 5 6 7 8 9 10 11 10 10 11 11 11 11 11 11 11 11 10 9
8 7 5 4 3 2 2 2 1 1 1 1 1 1 2 2 2 3 3 3 3 3 4 5 5 6 6 7 8 9 10 10 10 10 10 11 11 11 12 12 12 11 11
9 7 5 4 3 3 3 2 2 1 1 1 1 1 1 2 3 3 4 4 3 3 4 5 5 5 5 6 6 8 9 9 9 9 10 10 11 11 12 12 13 13 13
9 7 5 5 4 4 3 3 3 2 2 2 1 1 2 2 2 3 3 4 4 3 4 4 4 4 4 4 5 6 8 9 9 9 9 10 11 12 13 14 14 14 14
10 8 6 6 5 4 4 4 3 3 3 2 2 3 3 3 2 3 3 3 4 4 4 3 3 3 3 3 4 5 6 8 8 9 9 10 11 11 12 12 14 14 15
12 10 8 7 6 6 5 4 4 4 4 4 4 4 4 3 3 3 3 3 3 3 3 3 3 3 3 3 3 3 4 5 6 7 8 9 10 11 12 12 13 14 14
13 11 9 8 8 7 7 6 6 5 5 4 4 4 4 4 4 3 3 3 3 3 3 2 2 2 2 3 3 3 3 4 5 6 6 8 9 11 11 13 13 14 14
14 12 11 10 9 9 8 8 7 7 6 5 5 4 3 3 2 2 2 2 1 1 1 1 1 2 3 3 4 5 5 5 6 6 7 8 8 8 9 10 12 13 14
15 14 12 12 11 10 10 9 8 8 7 7 6 5 4 3 2 1 1 1 2 2 2 2 3 3 4 5 5 6 7 7 7 8 9 9 10 10 10 11 11 12 13
16 15 13 13 13 12 11 11 10 9 9 8 7 6 5 5 5 4 4 4 5 5 5 5 5 5 6 6 7 8 9 10 10 11 11 12 12 12 12 13 13 13 14
16 15 14 14 14 14 13 12 11 11 10 10 10 9 9 8 8 8 7 7 8 8 8 8 8 9 10 10 10 10 11 11 12 13 13 14 14 14 15 15 16 16 17
17 17 16 15 15 15 14 14 13 13 13 12 13 12 12 11 11 11 11 11 11 12 12 12 12 13 14 14 14 15 15 15 15 16 16 17 18 18 18 19 19 19 20
18 17 17 16 16 16 16 15 15 15 15 15 15 15 15 14 14 14 15 15 15 15 16 16 16 16 17 18 18 19 19 20 20 20 21 22 22 22 23 23 23 24 24
18 18 18 17 17 18 18 17 16 16 17 17 17 17 17 17 17 18 18 19 19 19 19 19 19 20 20 21 22 23 23 24 24 25 26 26 26 27 27 27 28 28 28
17 18 19 18 18 19 20 19 18 18 18 18 18 19 19 20 20 21 21 21 21 21 22 22 23 23 23 24 25 26 27 27 28 29 30 30 30 30 31 31 32 32 32
18 19 18 19 19 19 19 20 20 21 21 21 20 21 22 23 23 23 23 24 24 24 25 26 26 26 26 27 28 28 29 30 31 32 32 33 33 34 35 35 35 36 36
17 17 18 19 19 19 19 20 21 21 21 22 22 23 23 24 24 25 25 26 26 26 27 28 29 29 29 30 30 31 32 33 33 34 34 35 36 37 38 38 39 39 39
16 16 17 19 20 20 21 21 22 22 23 23 23 24 24 25 25 26 26 27 27 28 28 29 31 32 33 33 33 34 35 36 36 37 38 38 39 40 41 41 42 43 43
16 16 17 18 19 20 20 22 23 24 25 25 25 25 25 25 26 26 27 28 28 29 30 31 33 34 35 36 37 38 38 39 40 41 42 42 42 43 44 45 45 46 47
15 16 17 18 19 20 21 22 23 23 24 25 25 26 26 27 27 28 29 30 30 31 33 34 36 37 38 39 40 41 41 42 43 44 45 46 46 47 48 49 50 50 51
15 16 17 18 19 19 20 21 22 23 24 25 26 27 27 28 29 31 31 32 34 35 37 38 40 41 41 42 43 44 44 45 46 47 49 49 51 52 53 54 54 55 56
15 16 17 18 18 19 20 20 22 24 24 26 27 28 29 31 32 32 34 36 37 39 40 41 42 43 44 45 46 48 49 50 50 51 53 54 55 56 57 58 59 59 60
17 18 18 18 19 19 20 21 23 24 26 27 28 30 32 34 35 36 37 39 40 41 42 43 45 46 47 48 50 51 52 54 55 57 58 59 59 61 61 62 63 63 63
20 20 21 21 22 22 23 24 26 27 28 30 31 33 35 36 37 38 40 41 43 44 45 46 48 49 51 53 54 56 57 58 59 61 63 64 64 64 64 64 64 65 64
22 22 23 24 25 26 27 28 30 31 33 34 35 36 37 38 39 40 42 44 45 47 49 50 52 53 55 57 59 60 62 63 64 64 65 66 67 67 65 64 65 65 65

GEFSMA_500_meanwind_108.txt.gz
Wind_Speed
5 5 4 3 2 2 2 1 1 1 2 2 2 2 2 3 3 3 3 4 4 5 6 6 7 8 8 8 8 8 9 9 9 9 9 8 8 8 8 8 8 7 7
6 5 4 3 2 2 1 1 1 2 2 1 2 2 3 3 3 3 3 4 4 5 5 6 7 7 8 8 8 8 9 9 9 9 9 9 9 10 10 10 10 9 9
7 5 4 3 3 3 2 2 2 2 1 2 2 2 3 3 3 3 4 4 4 5 5 6 7 7 8 8 8 8 9 9 10 9 9 9 10 10 11 11 10 10 10
8 6 5 5 4 4 3 2 2 2 2 2 2 2 2 2 2 3 3 4 4 5 5 6 7 7 8 8 7 8 8 9 9 10 10 10 10 11 11 11 11 11 11
10 8 7 6 5 5 4 3 3 3 2 2 2 2 2 2 2 2 2 3 4 4 4 5 5 6 7 7 7 7 8 9 9 9 10 10 10 11 11 11 11 11 12
12 10 8 7 6 6 5 4 4 4 3 3 2 2 2 2 2 2 2 2 3 4 4 4 4 4 5 6 6 6 7 8 9 9 10 10 10 11 11 11 12 12 13
13 11 10 8 7 7 6 5 5 4 4 3 3 3 3 2 1 2 2 2 2 3 3 4 4 4 4 5 5 6 6 7 8 8 8 9 10 11 12 12 13 13 13
14 13 12 10 9 8 7 7 6 5 5 4 4 4 3 2 2 2 2 2 1 1 2 3 3 4 5 5 6 6 6 6 7 7 8 9 10 10 11 12 13 14 14
15 14 13 12 10 10 9 8 7 7 6 5 5 4 4 3 2 2 1 1 1 2 2 3 4 4 4 5 6 6 7 8 9 9 9 10 10 10 10 11 12 13 14
17 15 14 13 12 12 11 10 9 8 8 7 6 6 5 4 4 3 3 3 3 4 4 4 5 6 6 6 7 8 9 10 11 11 11 12 12 12 12 13 13 14 14
17 17 15 15 14 14 13 12 11 10 10 9 8 8 8 7 7 6 6 6 6 6 6 7 7 8 9 9 9 10 10 12 13 14 14 14 15 15 15 16 16 17 17
18 17 17 16 16 15 14 13 13 13 12 12 11 11 10 10 10 10 10 10 10 10 10 10 11 11 12 13 13 13 13 14 15 16 17 18 18 18 19 19 20 20 20
19 18 18 17 16 15 15 15 15 14 14 14 14 13 14 14 13 13 14 14 14 14 14 14 15 15 16 16 17 17 18 18 19 19 19 20 21 21 22 22 23 23 23
19 19 18 18 17 17 16 16 16 16 16 16 16 16 17 17 16 16 17 17 17 17 18 18 18 19 19 20 21 21 21 22 23 23 23 24 24 25 26 27 27 27 28
18 18 19 18 18 18 18 18 18 18 18 18 18 19 19 19 19 19 19 20 20 21 21 22 22 23 23 23 24 24 25 26 27 27 27 28 28 29 30 31 31 32 32
18 18 18 18 18 18 18 18 19 19 20 20 20 21 21 21 21 21 21 22 23 23 24 24 25 26 26 27 28 28 29 30 30 31 32 33 33 34 34 35 36 36 36
18 19 19 19 19 19 20 20 21 21 21 22 23 23 23 22 22 23 24 24 25 25 26 28 29 29 29 30 31 32 32 33 34 34 35 36 37 37 38 39 39 40 40
17 18 19 19 19 20 20 21 22 23 23 24 24 24 25 25 25 25 26 26 27 28 29 30 31 31 31 32 33 34 35 36 37 38 38 39 40 41 42 43 43 43 44
17 18 19 20 20 20 20 21 22 22 23 24 24 25 25 25 26 26 27 28 29 30 31 32 32 32 33 34 35 36 37 38 39 40 41 43 44 45 46 47 47 48 48
17 18 19 19 20 20 21 21 22 22 22 23 23 24 25 26 27 28 29 30 30 31 32 33 33 34 35 36 37 38 39 41 43 44 45 47 47 48 49 50 51 51 52
17 18 19 20 20 20 21 22 23 23 25 25 25 25 26 28 29 30 30 31 32 33 34 35 36 37 38 39 40 41 42 44 45 47 48 50 51 51 52 53 54 55 56
16 18 19 20 21 21 20 21 22 23 24 25 26 27 28 29 30 31 32 33 34 36 37 38 40 41 41 42 43 45 47 48 49 50 51 53 54 56 57 58 59 60 61
17 18 18 19 20 20 21 21 22 23 24 25 27 28 29 30 31 32 33 35 36 38 40 42 43 44 45 46 48 49 50 52 53 54 55 56 58 59 61 62 64 65 66
19 20 20 19 19 20 21 21 22 24 25 26 28 29 30 31 32 34 35 37 39 41 42 44 46 48 49 51 52 53 54 56 58 59 60 60 61 62 64 65 67 68 69
19 20 21 21 21 22 23 24 25 26 27 28 29 31 32 34 36 38 39 41 43 45 46 48 49 50 52 53 55 57 58 60 61 62 63 64 65 65 66 67 68 70 71
21 22 23 23 23 23 25 26 27 28 29 31 33 35 36 38 39 40 42 44 46 48 50 50 52 53 55 57 59 60 62 63 64 65 65 67 67 68 68 68 69 71 72

GEFSMA_500_meanwind_114.txt.gz
Wind_Speed
8 6 5 5 4 3 2 2 2 2 3 3 4 3 3 3 3 3 3 4 5 6 6 5 5 6 7 7 7 8 8 8 8 8 8 8 7 7 7 7 6 6 6
9 8 7 6 5 4 3 2 2 3 3 4 4 4 3 4 3 3 3 3 4 5 5 5 5 6 6 7 7 7 8 8 8 8 8 8 8 8 8 8 8 8 7
9 9 8 7 6 5 4 3 2 3 3 3 4 4 4 4 4 3 3 3 3 4 4 5 5 6 6 7 7 7 8 8 8 8 8 9 9 9 9 9 9 9 9
10 10 9 8 7 6 5 3 3 3 3 3 3 4 4 4 4 4 4 4 4 4 4 4 5 6 6 7 7 7 7 8 8 8 9 9 9 10 10 10 10 10 10
12 11 10 8 7 7 6 5 4 4 3 3 4 4 4 4 4 4 4 4 4 4 4 5 5 6 6 7 7 7 7 8 8 8 8 9 9 9 9 10 10 10 10
13 12 10 9 8 7 7 6 5 5 4 4 4 4 4 3 3 4 3 3 3 4 4 5 5 5 6 6 6 7 7 8 8 8 8 8 9 9 10 10 10 11 11
14 13 12 10 9 9 8 7 6 6 5 5 4 4 3 3 3 4 4 3 3 3 4 4 4 4 5 6 6 7 7 7 8 9 9 9 9 9 10 10 11 12 12
15 14 13 12 11 10 9 8 7 7 6 6 5 5 4 4 4 4 4 3 3 3 3 3 4 4 5 6 6 7 7 7 8 8 9 10 10 11 11 11 12 12 12
16 15 14 13 12 11 10 9 9 8 8 7 7 6 6 5 4 4 4 4 3 4 4 4 5 6 6 7 7 7 8 8 9 10 10 10 11 12 12 12 12 13 13
17 16 15 14 13 12 12 11 10 10 9 9 9 8 7 6 6 5 5 5 5 5 6 6 7 7 8 9 9 9 9 10 11 12 12 13 13 14 14 15 15 15 15
17 17 16 16 15 14 13 12 12 11 11 11 10 9 9 8 8 7 7 7 8 8 8 9 10 10 11 11 11 11 12 13 13 14 15 16 16 17 17 18 18 18 18
17 18 17 17 16 16 15 14 14 13 13 13 12 12 11 10 10 10 11 11 11 12 12 13 13 14 14 15 15 15 16 17 17 18 18 19 19 20 21 21 21 22 22
18 17 17 18 17 17 16 16 16 15 15 14 14 14 13 13 13 14 14 15 15 15 16 16 17 17 17 18 18 19 19 20 20 21 22 22 23 23 24 24 24 25 26
18 18 18 18 19 19 18 18 17 17 17 17 16 16 16 17 17 17 18 18 19 19 19 20 20 21 22 22 22 22 23 23 24 24 25 26 27 27 28 28 28 29 29
18 19 19 19 20 20 20 19 19 19 19 19 19 19 20 20 20 20 21 21 22 22 23 23 24 24 25 25 26 26 27 27 28 28 29 30 31 31 32 32 33 33 34
18 19 20 20 20 21 21 21 21 20 20 20 20 21 22 22 22 23 24 25 25 25 26 26 26 27 27 27 28 29 30 30 30 31 32 33 34 35 35 36 36 37 38
18 19 20 21 21 21 21 21 22 22 21 22 22 23 23 24 24 25 26 27 27 28 28 29 29 29 29 30 31 32 32 33 34 35 36 36 37 38 39 39 40 41 41
18 19 19 20 20 21 21 21 21 21 22 21 22 23 24 25 26 27 27 28 29 30 30 31 31 31 32 33 34 35 36 37 37 38 39 40 41 41 42 43 44 45 45
19 20 20 20 20 21 21 21 21 22 22 22 23 23 24 25 26 26 27 28 29 31 31 32 33 33 34 35 36 38 39 40 41 41 42 43 44 45 46 47 48 49 49
19 19 19 20 21 21 21 22 22 23 24 24 24 25 25 26 26 27 27 28 29 30 31 33 34 35 37 38 39 40 42 43 43 44 45 46 47 49 50 51 51 52 53
19 19 19 20 21 22 22 23 24 25 25 26 26 26 26 27 28 29 30 31 31 32 33 34 35 37 39 40 41 42 43 44 45 46 48 49 51 52 53 54 54 55 56
21 21 21 21 22 23 24 25 26 26 27 27 27 27 27 27 28 29 30 30 31 33 34 35 37 39 40 40 41 43 45 46 48 49 51 53 54 55 56 58 58 59 60
21 22 22 22 23 24 25 26 27 26 26 27 27 27 27 27 27 29 30 31 33 34 36 37 38 40 42 43 44 46 48 49 51 53 54 56 57 58 59 61 61 62 63
22 23 22 22 22 23 24 25 25 25 26 27 27 28 28 29 30 31 32 33 35 36 37 39 41 43 45 45 47 49 51 53 55 56 56 57 59 60 61 63 64 65 66
23 23 23 23 23 23 24 25 25 25 26 27 28 29 30 32 32 33 34 35 37 38 40 42 43 45 46 49 51 52 54 56 57 58 59 61 62 63 64 65 67 67 68
24 24 25 25 25 25 25 26 27 27 27 27 29 30 32 32 33 35 36 38 39 40 42 44 46 48 49 51 52 54 55 57 58 60 61 62 63 64 65 65 67 67 68

GEFSMA_500_meanwind_120.txt.gz
Wind_Speed
8 7 6 5 4 4 3 3 3 3 4 4 3 3 2 2 1 1 1 2 3 3 3 5 5 5 5 5 6 6 6 6 6 5 6 6 6 6 6 6 7 6 6
10 8 7 5 5 4 4 3 3 3 3 3 3 3 3 2 2 1 1 1 2 2 3 3 4 4 4 4 5 6 6 6 6 6 6 7 6 7 7 7 7 7 7
11 9 7 6 5 4 4 3 3 2 3 3 2 2 3 2 2 2 1 1 1 2 2 2 3 4 4 4 4 4 5 6 6 7 7 7 7 7 7 8 8 8 8
11 9 8 7 6 5 4 4 3 2 3 2 2 2 2 2 2 1 1 1 1 1 2 2 3 3 4 3 3 3 4 5 6 6 7 7 7 7 7 8 9 9 9
11 10 9 8 7 6 5 4 4 3 3 2 2 2 2 3 2 2 1 1 1 1 2 2 3 3 3 3 4 4 4 5 5 5 5 6 6 6 7 7 8 8 9
11 10 9 9 8 7 6 5 5 4 4 3 2 2 2 2 2 2 2 2 1 2 2 2 3 3 4 4 4 3 4 4 5 5 5 6 6 7 7 7 8 9 9
12 11 10 9 9 8 8 7 6 6 5 4 4 3 3 3 2 2 2 2 2 2 2 2 3 3 3 3 4 4 4 5 5 5 6 7 8 8 8 9 9 9 10
13 12 11 10 10 9 9 8 8 7 6 6 5 5 4 3 3 3 3 3 3 2 3 3 3 3 3 3 4 4 5 5 6 7 7 7 8 9 9 10 11 11 11
15 14 13 11 11 10 10 10 9 9 8 7 7 6 5 5 4 4 4 4 4 4 4 4 4 4 4 5 5 6 6 7 8 8 8 9 9 10 11 11 12 13 13
14 14 14 13 12 12 11 11 11 10 9 9 9 8 7 7 6 6 6 6 5 5 5 6 6 6 7 7 8 8 9 10 10 10 11 12 12 12 13 14 15 15 15
14 14 15 15 14 13 13 13 12 12 11 11 10 10 10 9 9 9 9 8 8 8 8 8 9 9 9 10 11 11 12 13 13 13 14 15 15 16 16 17 17 18 18
15 15 15 16 15 15 14 14 14 13 13 12 12 12 12 11 11 11 11 11 11 11 12 12 13 13 13 14 14 15 16 16 17 17 18 18 19 19 20 20 21 21 22
15 15 16 17 17 16 16 16 15 14 14 14 14 14 13 13 14 14 14 14 14 15 15 15 16 17 17 17 17 18 19 19 20 21 22 22 22 23 23 24 25 25 26
15 16 16 17 17 18 17 17 16 16 16 16 16 16 16 16 17 16 17 17 17 18 18 18 19 19 20 20 21 21 21 22 23 24 24 25 25 26 27 27 28 29 30
15 16 16 17 17 18 18 18 18 18 18 18 18 18 18 19 19 19 19 20 21 21 22 22 23 23 23 23 24 24 25 26 27 27 27 28 28 29 29 30 31 31 33
15 16 17 17 18 19 19 19 19 19 20 20 20 20 20 20 21 22 22 23 23 23 24 24 25 26 25 26 27 27 28 29 29 30 30 30 31 32 32 33 34 35 36
16 17 18 18 18 19 19 19 20 20 21 21 21 22 22 22 21 21 22 24 25 25 26 26 27 27 27 28 29 29 29 30 31 31 32 32 33 34 35 36 38 38 39
16 17 18 19 19 19 19 19 20 20 21 21 22 23 23 23 23 24 24 25 26 27 27 27 27 28 28 29 31 31 31 32 33 33 34 35 36 37 39 40 41 42 43
16 16 17 19 19 19 19 19 20 20 21 22 22 23 24 24 25 26 26 27 27 28 28 28 28 29 30 31 32 34 34 35 36 36 36 38 39 40 42 44 45 46 47
16 17 18 18 19 20 20 21 22 22 22 23 24 25 25 26 27 27 28 28 28 28 29 30 30 31 32 33 34 35 35 36 37 37 39 41 42 43 45 46 47 48 50
16 16 18 19 20 21 21 22 22 22 23 23 25 26 27 28 29 30 30 30 30 30 31 31 32 33 33 34 34 35 36 37 39 40 41 43 44 45 47 48 49 50 52
17 17 18 19 20 20 21 22 23 24 24 24 26 27 28 29 30 29 29 30 30 31 31 31 32 33 34 36 37 37 38 40 42 43 44 46 47 48 50 51 52 54 55
19 19 19 20 21 21 23 23 23 23 24 25 27 28 28 28 28 29 29 30 30 31 31 32 34 35 37 37 39 40 41 43 44 45 46 48 50 51 53 54 55 56 57
21 21 21 21 22 22 22 23 24 25 26 27 28 28 28 27 27 29 30 30 31 32 33 34 35 36 38 39 40 42 44 45 46 47 49 50 51 52 54 55 57 58 59
22 22 22 22 22 23 24 24 26 26 27 27 27 28 28 28 29 29 31 31 32 33 34 35 36 37 39 40 42 43 45 46 47 48 49 50 51 52 53 55 55 56 57
23 23 23 23 23 24 24 26 26 26 27 27 28 28 29 30 30 30 31 32 34 35 35 36 38 39 40 41 43 44 45 46 47 47 49 49 50 51 52 53 54 55 56

GEFSMA_500_meanwind_126.txt.gz
Wind_Speed
6 5 4 4 3 3 3 2 2 2 2 2 2 2 2 2 2 2 3 3 4 4 4 3 4 4 4 5 6 6 6 6 7 7 7 7 7 7 7 7 7 7 7
7 5 4 3 3 2 2 2 2 2 2 2 2 2 2 3 2 2 2 3 3 3 4 3 3 3 3 4 5 6 6 7 7 7 7 7 8 8 8 8 9 8 8
8 6 5 4 3 3 2 3 2 2 2 2 3 3 3 3 2 2 2 2 2 3 3 3 3 3 3 3 3 5 6 6 7 7 7 8 9 9 9 9 9 10 10
9 7 6 5 4 3 3 3 3 3 3 3 3 3 3 3 2 2 2 2 3 3 3 3 3 3 3 3 3 4 5 6 6 7 7 7 7 8 9 9 9 10 10
9 8 6 6 5 4 4 4 3 3 3 3 2 3 3 3 3 3 3 3 3 2 2 3 3 3 3 3 3 4 5 5 6 6 6 7 7 8 8 9 9 10 10
10 8 7 6 6 6 5 5 4 4 4 3 3 3 3 3 3 3 3 3 3 3 3 3 3 4 4 4 4 5 5 5 5 5 6 7 7 8 8 9 9 10 10
11 9 8 7 7 7 7 6 6 6 5 5 5 5 5 4 4 3 4 4 3 3 3 3 3 4 4 4 4 4 5 5 5 6 6 7 7 8 9 10 11 11 11
12 11 9 9 8 8 8 7 7 7 7 7 7 6 6 6 6 5 5 5 5 4 4 4 4 4 4 4 4 4 5 5 6 7 7 8 9 9 10 11 12 12 13
13 11 10 10 9 9 9 9 9 9 9 9 8 8 7 7 7 6 6 6 5 6 6 6 6 5 6 6 6 6 6 7 7 8 9 10 10 11 12 13 13 14 14
12 12 11 11 10 11 10 10 10 10 10 10 10 9 9 9 8 8 8 8 8 8 8 7 7 7 7 7 8 9 9 9 10 11 11 12 13 14 14 15 15 16 17
12 13 12 12 12 12 12 11 11 11 11 11 11 11 11 10 10 9 9 9 9 10 9 9 8 9 10 10 10 11 11 12 13 14 14 15 16 17 17 18 19 19 20
13 13 13 13 13 13 13 12 11 12 12 12 12 12 12 12 11 11 11 11 11 11 11 11 12 12 12 13 14 14 15 16 17 17 18 18 19 20 20 21 21 22 23
12 12 13 13 13 14 14 13 13 13 13 13 13 13 13 13 14 14 13 13 13 13 13 13 14 14 15 16 17 17 18 19 20 20 21 21 22 23 24 24 25 25 26
12 12 13 14 14 14 14 14 14 14 15 15 14 14 15 15 15 15 15 16 16 15 15 15 16 17 18 19 19 20 21 22 22 23 23 24 24 25 26 27 28 29 30
12 13 13 13 13 14 15 15 16 16 16 16 16 16 16 16 16 16 16 17 17 18 18 18 18 19 20 21 21 22 23 23 24 24 25 26 26 27 28 29 30 31 32
12 13 14 15 14 14 15 16 16 17 17 17 18 18 17 17 17 18 18 18 19 20 20 20 20 21 22 23 23 24 24 25 26 27 27 28 29 30 30 32 32 33 34
13 13 14 16 16 17 16 16 16 16 17 19 19 19 19 19 19 20 20 20 20 21 21 21 22 23 23 24 25 26 27 27 28 29 29 30 31 32 33 34 35 36 37
13 14 15 15 16 17 17 17 17 17 18 19 19 19 20 20 20 21 22 22 22 23 23 23 24 25 25 26 27 28 29 30 30 31 32 33 33 34 35 37 38 39 40
12 13 14 14 15 16 17 17 18 19 19 20 21 21 21 21 22 23 23 23 23 24 25 25 26 27 27 28 29 29 30 31 33 33 34 35 35 36 38 38 39 41 42
12 13 14 15 16 16 18 18 19 18 19 20 22 22 23 23 23 25 25 24 25 26 27 27 28 29 30 30 30 31 32 33 33 34 36 37 37 39 40 41 42 43 44
14 15 16 16 16 17 18 19 20 20 21 22 23 23 24 24 24 25 25 26 26 27 28 29 29 30 30 31 31 32 33 34 35 36 38 38 39 41 42 44 45 46 47
15 15 16 17 17 18 19 20 20 20 21 21 21 22 23 24 24 24 25 26 27 27 28 28 29 30 31 32 32 33 33 35 36 38 40 41 42 43 45 47 48 49 50
16 17 17 17 18 19 19 19 20 21 21 21 21 22 23 24 25 26 26 26 26 27 27 28 29 30 31 32 33 34 35 37 39 40 41 42 44 45 47 48 49 50 52
18 19 19 19 19 20 20 21 22 22 23 23 23 23 23 24 25 25 26 27 27 27 28 29 29 30 31 33 34 36 37 38 39 41 43 44 45 47 48 49 50 51 52
18 19 19 20 21 21 22 22 23 23 23 23 24 24 23 24 25 25 26 26 27 27 28 29 30 31 32 34 35 36 38 40 42 43 44 45 45 47 48 49 50 50 50
19 19 20 21 21 21 21 22 23 23 23 23 24 24 24 24 25 25 25 27 27 28 28 30 32 33 34 36 37 37 39 41 42 44 45 45 46 47 47 48 48 48 48

GEFSMA_500_meanwind_132.txt.gz
Wind_Speed
5 4 2 2 1 1 1 1 1 1 1 1 1 2 2 1 2 2 3 3 3 3 3 4 4 4 4 5 5 6 6 6 7 7 7 7 7 7 7 7 7 7 7
6 5 3 3 2 1 1 1 2 2 2 2 2 2 2 2 2 3 3 3 3 3 3 3 4 4 5 5 5 6 6 7 7 7 7 7 8 8 8 8 8 8 8
7 6 4 4 3 3 3 2 2 3 3 2 2 2 2 2 2 2 3 3 3 4 4 4 4 4 5 5 5 6 6 7 7 8 8 8 8 8 8 9 9 9 9
9 7 6 5 4 4 4 3 3 3 3 3 2 2 3 3 3 3 3 3 3 3 3 4 4 4 5 5 5 6 6 6 7 7 8 8 8 8 8 9 9 10 10
10 9 8 7 6 5 5 4 4 4 3 3 3 3 3 3 3 3 3 3 3 3 4 4 4 5 5 5 6 6 6 6 7 7 8 8 8 8 9 9 9 10 11
12 10 9 9 7 7 6 5 5 5 4 4 3 3 3 4 4 4 4 4 4 4 4 5 5 5 5 5 6 7 7 7 7 7 8 8 9 9 10 10 10 11 11
13 11 11 10 9 8 7 7 6 6 5 5 5 5 5 5 5 5 4 5 5 5 6 6 6 6 6 6 7 7 7 7 7 7 8 9 9 10 11 12 12 13 13
14 13 12 11 10 9 8 8 8 7 7 7 7 7 6 6 6 6 6 6 6 7 7 7 7 7 7 7 7 7 8 8 8 8 9 10 11 12 12 13 14 14 15
14 14 13 12 11 10 10 9 9 9 9 8 8 8 8 8 8 8 8 8 8 8 9 8 8 8 8 8 8 9 9 10 10 10 11 12 13 14 14 15 15 16 17
15 15 14 14 13 12 11 11 11 11 10 10 10 10 10 10 10 10 10 9 9 9 9 9 10 10 10 11 11 10 11 11 12 13 14 14 15 16 17 18 18 18 19
16 16 16 15 15 14 12 12 12 12 12 12 12 12 12 12 12 12 12 12 12 11 11 12 11 12 12 13 13 13 14 14 15 16 16 17 18 19 20 20 21 21 21
15 16 16 15 15 14 14 14 14 14 14 14 14 14 14 14 14 14 14 14 14 14 14 14 14 14 14 15 16 16 16 17 18 18 19 20 21 21 22 23 23 23 24
15 15 15 15 16 16 15 15 15 14 14 14 14 15 15 15 15 15 15 16 15 16 15 15 15 16 16 17 17 18 18 19 20 21 21 22 23 23 24 25 26 26 27
14 14 15 15 15 16 16 16 15 16 16 15 16 16 16 17 17 17 17 18 18 17 17 17 18 19 18 19 20 20 21 22 23 24 25 25 26 26 27 28 29 29 30
12 13 14 15 16 16 17 17 16 17 17 17 17 18 19 19 19 19 19 19 19 20 20 20 20 21 21 21 22 23 23 24 25 26 27 27 27 28 30 31 32 33 34
13 13 15 16 16 17 18 18 17 18 18 18 19 19 20 20 21 21 21 21 21 21 22 23 23 23 23 24 24 24 25 26 27 28 29 30 31 31 32 34 35 36 36
13 13 15 16 16 17 17 18 19 19 19 19 19 20 21 21 21 22 23 22 22 23 23 24 25 26 26 26 26 27 28 29 29 30 31 33 33 34 35 36 37 37 37
13 14 14 16 17 17 18 18 19 19 20 19 20 21 22 22 22 23 24 24 24 24 25 26 27 27 27 28 29 29 30 31 32 33 34 35 35 36 37 37 37 38 39
13 15 16 16 17 18 18 19 19 19 20 20 21 22 23 24 24 24 25 26 26 26 27 27 27 28 29 31 31 32 33 33 34 34 35 36 37 38 38 38 39 40 41
15 15 16 16 17 18 19 19 20 21 21 22 22 23 24 26 26 26 27 27 28 28 28 28 29 30 31 31 32 33 34 34 35 36 37 37 38 38 38 39 40 40 41
15 16 16 17 17 18 19 20 22 22 23 24 24 25 25 26 26 27 28 28 29 29 29 30 30 31 32 33 33 34 35 36 37 37 37 37 38 39 39 40 41 42 43
16 17 18 18 19 20 20 21 23 24 25 25 26 26 26 26 27 27 27 28 28 29 29 30 31 32 32 33 33 34 35 36 36 36 37 38 39 40 41 42 43 44 45
18 18 19 20 20 20 21 22 24 25 26 26 27 28 27 28 28 27 27 27 28 29 30 30 31 32 32 32 33 33 34 35 36 37 39 39 40 41 43 44 44 45 46
18 18 19 20 21 21 22 22 23 24 24 25 26 27 28 29 30 29 29 29 28 28 29 30 31 32 32 33 33 33 34 35 37 38 39 41 42 43 44 45 45 45 45
19 19 20 20 21 22 22 23 24 25 26 26 27 28 29 29 29 29 29 28 28 29 29 30 30 31 31 32 33 35 35 37 38 39 40 41 42 43 43 44 44 45 45
20 21 21 22 23 24 24 25 25 25 25 26 27 27 27 28 29 29 28 28 29 29 30 30 32 32 33 34 35 36 37 38 39 40 40 41 42 42 43 44 44 43 43

GEFSMA_500_meanwind_138.txt.gz
Wind_Speed
8 6 5 5 4 4 4 5 4 4 3 3 2 2 2 2 2 2 2 2 2 2 2 2 3 3 3 3 3 4 4 4 4 4 4 4 4 4 4 4 4 4 5
8 7 5 5 5 4 4 5 5 4 4 3 3 2 2 2 2 2 2 2 2 2 2 3 3 3 3 4 4 5 5 4 4 5 5 5 5 5 5 5 5 5 6
9 8 6 6 5 5 4 4 4 4 4 3 3 3 3 2 2 2 2 2 2 2 2 3 3 3 3 4 5 5 5 5 5 5 6 6 6 6 5 6 6 6 6
10 9 7 6 6 5 5 5 4 4 4 4 4 3 3 3 3 3 3 3 3 3 3 3 3 4 4 4 5 5 5 5 5 6 6 6 7 6 6 7 7 8 8
12 10 9 8 6 6 5 5 5 5 5 5 4 4 4 3 4 3 3 3 3 4 4 4 4 4 4 5 5 5 5 5 6 7 6 6 6 6 7 8 8 8 9
13 12 10 9 8 7 6 6 5 5 6 6 5 5 5 5 5 5 4 4 4 5 5 5 5 5 5 5 6 6 6 7 7 7 7 7 7 7 8 9 9 10 11
13 12 11 10 9 8 7 7 6 6 6 6 6 6 6 6 7 7 6 6 6 6 7 7 7 7 7 7 7 7 7 8 8 7 8 8 8 9 9 10 11 11 12
14 13 12 11 10 9 8 8 8 8 7 7 7 7 8 8 8 8 8 8 8 8 8 8 8 8 8 8 9 9 9 9 9 9 9 10 10 11 11 12 12 13 14
14 15 13 12 11 11 10 9 9 9 9 9 9 9 9 9 9 10 10 10 9 9 9 9 9 9 10 10 10 10 11 11 11 11 11 12 12 12 13 14 15 16 16
15 15 14 13 12 12 11 11 11 11 11 11 10 11 11 11 11 11 12 11 11 11 11 11 11 12 12 12 12 12 12 12 13 14 14 14 15 15 16 17 18 18 19
15 15 15 14 13 13 12 12 12 12 13 12 12 12 12 13 13 14 14 13 13 13 13 13 13 13 14 14 14 14 14 15 16 16 16 17 18 18 19 20 20 21 21
15 15 15 15 15 14 14 13 13 13 14 14 14 14 14 14 15 16 16 15 15 16 15 15 15 16 16 16 16 16 17 17 18 18 19 19 20 20 21 23 23 24 23
16 16 16 15 15 15 15 14 14 14 15 15 15 15 15 16 16 17 17 17 18 18 18 19 19 19 18 18 18 19 19 19 20 20 21 22 23 23 24 25 25 26 26
15 16 16 15 15 15 15 15 15 16 16 16 16 16 17 17 18 19 19 19 19 20 21 21 21 21 21 21 21 21 21 22 23 24 24 25 26 26 27 27 27 28 29
14 14 14 14 15 15 16 16 16 16 17 17 18 18 18 19 19 20 20 21 21 22 22 22 22 23 23 23 23 24 25 25 26 26 27 27 28 29 29 30 31 32 32
13 14 13 13 14 15 15 16 16 17 18 18 19 20 20 21 21 21 22 22 22 23 24 24 24 25 25 26 26 27 27 27 27 28 29 30 30 31 31 32 32 34 35
12 14 13 13 14 14 15 16 17 17 18 19 19 20 21 22 22 22 23 23 24 24 25 26 26 27 27 27 27 28 29 30 30 30 31 31 32 33 34 34 35 36 37
12 13 13 14 14 15 16 17 18 19 19 19 20 20 22 22 23 23 23 24 25 26 26 26 27 28 28 29 30 30 31 30 31 32 33 33 34 34 34 35 36 37 36
12 14 15 15 15 16 16 18 19 19 19 20 21 21 22 22 23 24 25 26 27 27 27 28 29 29 30 31 32 33 33 33 33 34 34 34 35 34 35 36 36 37 37
13 15 16 16 17 17 18 19 20 20 20 21 21 22 23 24 24 25 26 27 28 28 29 30 30 31 31 32 33 33 34 33 34 34 34 34 34 35 36 37 37 38 38
15 16 16 17 18 19 19 20 20 21 22 23 23 24 25 26 27 28 28 29 29 30 31 30 31 32 32 31 32 33 33 33 33 34 34 35 36 36 37 37 38 38 39
16 16 17 18 19 20 21 21 22 22 23 24 24 25 26 28 29 30 30 30 31 31 31 31 31 31 31 31 31 32 33 33 33 34 35 35 36 37 37 38 38 38 39
17 17 18 19 19 20 21 22 23 23 24 24 25 27 27 28 30 30 30 30 30 30 31 31 31 30 30 31 32 32 33 33 34 35 35 35 36 36 37 37 38 39 39
18 19 19 19 20 21 22 22 23 24 24 25 26 27 28 28 28 29 29 29 29 30 30 30 30 30 31 31 32 32 33 34 34 35 35 36 36 36 36 37 38 38 39
20 20 20 21 21 22 23 23 23 24 24 25 26 27 27 28 28 28 28 28 29 30 30 30 30 30 31 31 32 32 33 34 34 34 34 35 36 37 37 38 38 38 38
22 22 22 23 23 23 24 25 25 25 26 26 27 28 28 29 29 29 29 29 29 29 29 29 30 31 31 32 32 32 33 33 34 34 35 35 37 37 38 38 38 38 38

GEFSMA_500_meanwind_144.txt.gz
Wind_Speed
6 5 4 4 4 3 3 3 3 3 3 2 2 2 1 1 1 1 0 1 1 1 1 1 1 1 1 1 1 2 2 3 2 3 3 3 4 4 4 4 4 4 4
6 6 5 4 3 3 3 3 3 3 2 2 2 2 1 1 1 0 0 1 1 0 1 2 1 2 2 2 2 3 3 3 3 3 4 4 4 5 5 5 5 5 5
7 7 6 5 4 4 3 3 3 3 2 1 1 1 2 1 1 1 1 1 1 1 2 2 2 2 2 3 4 3 3 4 4 4 4 4 5 5 5 5 5 6 6
8 7 7 6 5 5 4 3 4 4 3 3 2 2 1 2 2 2 1 1 1 2 2 3 3 3 3 4 4 4 4 5 5 4 4 4 5 5 6 6 6 7 7
9 8 8 7 6 6 5 4 4 4 4 4 3 3 2 3 3 2 3 3 3 3 3 4 4 4 4 4 4 4 5 5 5 5 5 6 6 6 7 7 8 8 9
10 9 9 8 7 7 6 5 5 5 5 5 4 4 4 4 4 4 4 4 4 3 4 4 5 5 5 5 5 5 6 6 6 6 7 7 7 8 8 9 9 9 10
11 10 10 9 9 8 7 6 6 6 6 6 5 6 5 5 5 6 5 6 5 5 5 6 6 6 6 7 7 7 7 7 8 8 8 9 10 10 10 11 11 11 12
11 11 11 10 9 9 8 7 7 7 7 7 7 6 7 7 7 8 8 8 8 7 7 7 8 8 8 8 8 9 9 9 9 9 10 10 11 11 12 13 13 13 14
11 12 12 11 10 10 9 9 9 9 8 8 8 8 8 9 9 9 8 9 9 9 9 8 9 9 9 10 10 10 10 11 11 11 12 12 13 13 14 14 14 15 16
12 12 12 12 11 11 10 10 10 10 10 9 9 9 9 9 10 9 9 10 10 10 11 10 10 10 11 11 11 12 12 12 13 13 14 15 15 16 16 16 17 18 18
12 13 13 13 12 12 11 11 11 11 10 10 10 11 11 11 11 12 12 11 11 12 12 13 13 13 13 13 13 13 14 14 15 16 16 17 17 18 18 19 19 19 20
11 12 12 13 13 12 12 12 12 12 11 12 12 12 12 12 12 13 13 13 14 14 15 16 15 15 16 16 16 16 17 17 17 18 19 19 20 20 21 21 22 23 23
11 12 12 13 14 13 13 13 13 13 13 13 13 13 13 14 14 14 14 15 16 16 17 18 18 18 18 18 18 19 20 20 20 21 21 21 22 23 23 24 25 25 26
11 11 12 13 14 15 15 14 14 14 14 14 15 15 15 15 16 15 16 16 17 17 18 18 19 18 19 19 20 21 22 22 23 24 24 24 25 25 25 26 27 28 28
10 11 12 13 14 14 15 15 15 15 15 15 15 15 16 16 16 16 17 18 18 19 19 20 20 20 21 22 22 23 24 25 25 25 26 26 27 27 28 28 29 30 30
9 11 12 13 13 13 14 14 15 15 16 16 16 16 16 16 17 18 18 19 19 19 20 21 22 21 22 23 24 25 26 26 26 27 27 28 28 29 30 30 31 31 31
8 9 11 13 13 13 14 13 14 14 15 16 17 17 17 18 18 19 19 20 20 20 21 22 23 23 24 25 26 26 27 27 27 28 28 29 29 30 31 31 32 32 32
9 10 11 12 13 14 14 15 15 15 16 17 18 18 19 19 19 20 20 20 21 21 22 23 24 24 25 26 26 27 28 28 29 29 29 30 31 32 33 32 33 33 33
11 11 12 13 13 14 15 16 16 16 17 18 19 19 20 20 20 21 21 22 22 23 23 24 25 26 27 27 27 29 29 29 30 30 30 31 31 32 32 32 32 33 33
12 13 13 14 15 16 17 17 17 18 19 19 20 21 21 21 21 22 23 23 24 24 25 26 27 27 28 28 29 29 29 29 29 30 30 30 31 32 32 32 33 33 33
14 14 14 15 16 17 17 18 19 20 20 21 21 21 21 22 23 24 24 24 24 25 26 27 28 29 29 29 29 29 29 29 29 30 30 30 31 32 33 33 34 34 35
15 15 15 17 18 18 18 20 20 20 20 21 22 22 23 23 24 25 25 25 26 27 27 28 28 29 30 29 29 29 29 30 30 31 32 32 33 33 34 35 35 35 35
17 17 18 18 18 18 19 20 20 20 21 21 22 23 24 25 25 26 26 27 27 27 28 29 29 29 29 29 29 30 31 31 32 33 34 34 34 34 34 34 35 35 35
19 19 19 19 20 20 20 21 21 22 22 23 24 24 25 26 27 27 27 28 28 28 28 30 30 30 29 30 30 31 31 32 32 33 33 34 34 35 35 35 36 36 36
20 20 20 21 21 22 22 23 23 24 24 24 25 26 27 27 28 28 28 29 29 30 31 30 30 30 30 30 31 32 32 33 33 33 33 34 35 35 35 35 36 36 36
21 21 22 22 23 24 24 25 25 25 26 26 26 27 27 28 28 29 30 30 31 31 31 30 30 30 30 31 31 32 33 33 34 34 34 34 35 36 36 36 36 36 36

GEFSMA_500_meanwind_150.txt.gz
Wind_Speed
6 5 5 4 3 2 2 2 2 3 3 3 2 2 2 2 2 2 2 2 2 2 1 1 2 2 3 3 3 3 2 3 4 4 5 5 5 5 5 5 5 5 5
6 6 5 4 4 3 2 2 3 3 3 3 3 2 2 2 2 2 2 2 2 1 1 1 1 2 3 3 4 4 4 4 4 5 5 6 6 6 6 6 6 7 7
6 6 6 5 4 4 3 3 3 3 3 3 3 3 3 2 2 3 3 3 3 2 1 1 1 2 3 4 4 5 5 5 5 5 5 5 6 6 7 8 8 8 8
7 6 6 6 5 4 4 3 3 3 3 3 3 3 3 3 3 3 3 3 3 3 3 2 3 3 3 4 4 5 6 6 5 6 6 7 7 7 7 8 8 9 9
8 7 7 6 6 5 4 4 4 4 4 4 4 4 4 4 4 4 4 4 5 4 4 4 4 4 4 4 4 5 5 6 6 6 6 7 7 7 8 8 9 9 9
9 9 8 8 7 6 6 6 6 6 5 5 5 6 6 6 6 6 5 6 6 5 5 5 5 5 5 5 5 6 6 6 7 7 7 8 9 9 9 9 10 10 11
9 9 9 9 8 8 7 7 7 7 6 6 7 7 7 7 7 7 7 7 8 7 7 7 7 7 7 7 7 7 8 8 9 9 9 9 10 11 11 11 12 12 12
8 10 10 10 10 9 8 8 8 8 8 8 8 8 9 8 8 8 8 9 9 9 9 9 9 9 8 8 8 8 9 10 10 10 10 11 11 12 12 12 13 13 14
9 10 10 11 11 11 9 9 9 9 9 9 9 9 9 10 10 10 10 10 10 10 10 11 10 10 10 10 10 10 10 11 11 11 12 12 13 14 14 14 15 15 16
10 10 11 11 11 11 10 10 10 10 10 10 10 10 10 10 10 11 11 11 11 11 12 12 11 12 12 13 13 12 12 13 13 14 14 14 15 15 16 16 17 17 18
10 11 11 12 12 11 11 11 11 11 11 11 10 11 11 11 11 11 11 12 12 13 13 14 14 15 14 14 15 15 15 15 15 16 16 17 17 17 18 18 19 19 20
9 10 11 12 12 12 12 12 12 12 12 12 11 11 12 13 13 13 13 13 13 14 14 15 16 16 16 16 16 17 17 17 17 18 18 19 19 19 20 21 21 22 23
9 11 12 12 13 13 13 13 13 14 13 13 13 13 13 14 14 15 15 14 15 14 15 16 16 17 18 18 18 18 19 19 19 19 19 20 21 21 22 23 24 25 25
8 10 12 13 13 14 14 14 14 14 14 14 14 14 14 14 14 15 15 15 15 16 16 17 17 18 19 19 19 20 20 20 21 21 21 22 23 24 24 25 26 26 27
8 9 11 13 14 14 14 14 15 15 15 15 15 15 14 14 15 15 16 16 16 16 17 18 18 19 20 21 20 21 21 22 22 23 24 25 25 26 27 28 27 28 28
7 9 10 11 13 14 14 15 15 16 15 15 15 15 15 16 16 16 17 17 17 18 18 19 20 20 21 22 22 23 23 24 24 24 25 25 26 27 29 29 29 29 30
7 8 9 11 12 13 14 14 15 15 15 16 17 17 17 17 17 18 18 18 19 19 18 20 21 22 22 23 23 23 24 24 25 26 26 26 28 29 29 29 29 30 30
8 9 9 11 12 13 14 15 15 16 16 17 17 18 19 19 19 19 20 20 20 20 20 20 21 22 23 23 24 24 24 25 26 27 27 27 28 28 28 28 29 29 29
10 10 11 11 12 13 13 15 17 18 18 18 18 18 19 19 20 20 21 21 21 22 22 21 22 23 25 25 25 25 25 26 26 27 27 27 27 28 28 28 29 29 30
12 12 12 13 13 14 15 16 17 17 18 19 19 19 20 20 20 21 21 22 22 22 23 23 23 24 25 26 26 26 27 27 28 28 28 28 28 28 29 29 29 30 32
13 13 13 13 14 15 15 16 17 18 18 19 20 21 21 21 21 21 21 22 23 23 24 25 25 25 26 26 27 28 28 29 29 29 29 29 28 29 29 30 31 32 33
14 14 15 14 15 15 16 17 18 17 18 19 21 22 22 22 22 22 22 23 23 24 25 26 26 26 27 27 28 29 29 30 29 30 31 30 30 30 30 31 32 33 33
15 15 15 15 15 16 17 18 18 19 19 19 20 21 22 22 22 23 23 24 24 25 26 27 27 28 28 28 29 29 30 30 30 31 31 31 31 32 32 32 33 33 33
17 17 17 17 17 17 18 18 19 20 20 20 20 21 22 22 23 24 25 25 25 26 27 28 28 28 28 29 29 30 31 32 31 30 31 32 33 34 34 34 33 32 33
19 19 18 18 19 19 19 19 19 20 21 22 22 23 23 24 24 25 26 26 27 28 29 29 29 29 30 30 30 31 32 32 32 31 32 33 33 34 34 33 33 33 34
21 21 21 21 20 20 20 21 21 22 22 23 23 24 24 24 25 27 28 28 29 29 29 30 30 31 31 32 33 33 33 33 33 33 33 34 34 34 33 33 34 35 35

GEFSMA_500_meanwind_156.txt.gz
Wind_Speed
3 3 3 3 2 2 3 2 2 2 3 2 2 2 2 2 1 1 1 1 1 1 2 2 2 2 3 3 3 4 4 4 5 5 6 6 6 6 6 6 6 6 7
5 4 4 4 3 3 3 3 2 3 3 3 2 1 1 1 1 1 2 2 2 3 2 3 3 3 3 4 4 5 5 5 6 6 6 6 6 6 7 7 8 8 8
5 5 5 5 4 4 3 3 3 3 4 4 4 3 3 2 2 2 3 3 3 3 3 4 4 4 4 5 5 5 6 7 7 7 7 7 7 7 7 8 9 9 9
6 6 6 6 6 5 4 4 4 3 4 4 5 4 4 4 4 4 4 5 5 5 5 5 5 5 6 6 6 7 7 8 8 8 8 8 8 8 9 9 9 9 10
7 7 7 7 7 6 6 6 5 4 4 4 5 6 6 5 5 5 6 6 6 7 7 7 7 6 7 7 7 8 9 9 9 9 9 10 10 9 9 10 10 10 11
8 8 8 8 8 7 7 7 7 6 6 5 6 7 7 7 7 7 7 8 8 8 8 8 8 8 8 8 8 9 9 9 10 10 11 11 11 11 12 12 12 12 13
8 8 8 9 9 8 8 8 8 7 7 8 8 8 8 8 8 8 9 9 9 9 9 9 9 9 9 9 10 10 10 10 11 12 12 13 13 13 13 13 13 14 14
9 9 9 10 10 10 10 9 9 9 9 9 9 9 9 9 9 9 10 10 10 11 11 11 11 11 11 12 12 12 12 12 13 14 14 15 15 15 15 15 15 15 16
10 10 9 10 11 11 11 11 11 10 10 10 9 10 10 10 11 10 11 12 12 12 12 12 13 12 13 13 14 14 14 15 15 16 16 17 16 16 17 17 17 17 17
10 10 11 11 11 12 12 12 12 11 11 11 11 11 11 11 12 12 12 12 13 13 14 14 14 15 15 15 16 16 17 17 17 18 18 18 19 19 19 19 19 19 19
10 11 12 13 13 13 14 13 13 12 12 12 12 12 12 13 13 14 14 13 14 14 14 15 16 16 17 17 17 18 18 18 19 19 19 20 20 20 21 21 21 21 22
10 12 12 12 14 15 15 14 14 14 14 14 14 14 13 14 14 14 15 15 15 16 16 17 17 18 18 18 19 19 19 20 21 21 21 22 22 22 22 23 23 23 23
9 10 11 12 13 14 15 15 16 16 16 16 15 15 16 16 16 16 16 17 17 17 17 17 18 19 19 20 20 20 21 21 22 22 23 23 23 23 24 24 25 25 25
9 10 11 13 13 14 14 15 16 16 16 16 16 16 17 17 17 18 18 18 18 18 18 19 19 20 20 21 21 22 22 23 23 23 24 25 25 26 26 26 26 27 27
8 9 10 11 13 14 15 16 17 17 17 17 17 17 18 18 19 19 19 19 19 19 20 21 21 21 21 22 22 23 24 24 24 24 25 26 26 27 27 27 27 28 29
9 10 11 11 12 13 14 15 17 17 18 19 19 19 18 19 19 20 20 21 21 21 21 22 23 23 23 23 24 25 25 25 25 26 26 27 27 27 28 29 30 30 31
9 10 10 11 12 12 13 14 15 16 17 18 19 19 20 20 21 21 21 22 22 22 23 23 25 25 25 25 27 26 26 26 27 27 27 27 28 29 29 30 31 31 32
11 11 11 12 12 13 14 15 16 17 18 19 20 20 21 22 22 22 22 23 24 24 24 25 26 26 27 28 28 28 27 27 28 28 29 29 29 30 30 30 31 32 32
12 11 11 11 12 13 14 16 16 17 18 19 20 21 22 22 23 23 24 24 25 25 25 25 26 27 27 28 28 28 28 28 28 28 29 29 30 31 31 31 32 33 33
14 13 13 12 13 14 15 16 16 17 19 19 20 21 21 22 23 23 24 25 26 26 26 26 27 27 27 28 28 28 29 29 29 29 30 30 31 31 32 33 33 33 34
16 16 16 15 16 16 16 17 17 18 19 20 20 21 22 22 23 23 24 24 26 26 27 28 28 27 28 29 29 29 29 29 30 31 31 31 32 33 33 34 34 34 34
17 17 17 18 18 18 18 18 19 19 20 21 22 22 23 24 24 25 25 26 27 27 28 28 28 29 29 30 30 30 31 31 31 32 32 32 33 34 34 34 34 35 35
19 18 19 19 19 19 19 20 20 21 22 22 22 22 23 23 25 26 26 27 27 28 29 28 29 30 30 30 31 32 32 33 33 33 33 33 34 34 34 35 35 35 35
19 19 19 19 19 19 19 20 21 21 22 22 23 24 24 24 25 26 27 28 29 29 30 30 30 31 31 31 32 33 33 33 34 34 34 34 34 35 35 36 36 36 36
21 21 21 20 20 20 20 21 22 22 23 24 25 26 26 27 27 28 28 28 29 30 31 32 32 32 33 33 33 34 33 34 34 33 34 34 35 36 36 37 37 37 37
23 23 23 23 22 22 23 23 23 24 25 26 26 27 27 28 28 29 29 29 30 31 32 32 32 33 33 33 33 34 34 35 35 35 35 35 36 36 37 37 37 37 37

GEFSMA_500_meanwind_162.txt.gz
Wind_Speed
5 6 6 6 5 5 4 4 5 5 5 5 4 4 4 3 2 2 2 2 1 1 1 1 2 2 2 3 3 4 4 4 4 4 4 4 4 4 4 5 5 6 6
5 6 6 6 5 5 4 4 4 5 4 4 3 3 3 3 2 2 2 2 2 2 2 2 3 3 3 3 4 4 5 5 5 5 5 5 5 5 5 6 6 7 7
6 6 6 6 5 4 4 4 4 4 4 4 4 4 4 3 3 3 3 3 3 3 4 4 4 4 4 4 5 5 5 6 6 6 7 7 6 6 7 7 7 8 8
6 7 7 6 6 5 5 4 5 5 4 4 4 5 5 5 5 5 5 5 5 5 5 5 5 5 5 6 6 7 7 7 7 8 8 8 9 9 9 9 9 10 10
7 7 7 7 6 6 6 5 5 5 6 6 6 6 6 7 7 7 7 7 7 7 7 7 6 7 7 7 8 8 8 8 9 9 9 9 10 10 11 11 11 11 11
8 8 8 7 7 7 8 7 7 7 7 7 6 7 8 9 9 9 9 8 9 9 9 8 8 8 9 9 9 9 10 10 10 11 11 11 11 12 13 13 13 13 13
8 8 9 8 8 8 8 8 9 9 8 8 7 8 9 9 9 10 10 10 10 10 10 10 10 10 10 10 11 11 11 11 12 12 12 12 13 14 14 14 14 14 14
8 9 9 9 10 9 9 10 10 10 10 9 9 10 10 10 10 11 11 11 11 11 11 12 12 11 12 11 12 12 13 13 13 14 14 14 14 14 15 16 16 16 16
8 9 9 10 10 10 10 11 11 11 12 11 11 11 11 12 12 11 11 12 12 12 12 12 13 13 13 13 13 14 14 15 15 16 16 16 16 16 17 17 17 18 18
7 8 9 10 11 11 11 12 12 13 13 13 13 12 12 12 13 13 13 13 13 13 13 13 14 14 14 15 15 16 16 16 16 17 17 17 18 18 18 18 19 19 19
6 7 9 10 11 11 12 12 13 14 14 14 14 14 14 14 14 14 14 15 15 14 14 14 15 15 16 16 16 16 17 17 18 18 19 19 19 19 20 20 20 20 20
7 8 9 10 11 12 12 13 14 15 15 16 16 16 16 16 16 16 16 16 16 16 16 17 17 17 17 17 17 18 19 19 19 20 20 20 21 21 21 21 21 22 22
7 7 9 10 11 13 13 14 15 16 16 17 17 17 17 17 17 17 17 17 17 18 18 19 19 19 19 19 19 20 20 20 21 21 22 22 22 22 22 22 23 23 23
7 7 8 9 11 12 12 13 14 15 16 17 18 18 18 18 19 19 19 19 19 20 21 21 21 21 21 21 21 21 21 22 22 22 23 23 23 24 24 24 24 24 24
9 9 9 10 11 11 12 14 14 15 17 17 18 19 19 20 20 20 20 20 20 21 21 22 22 22 22 23 22 23 23 23 23 24 24 25 25 26 26 25 25 26 26
10 10 10 10 11 12 12 13 14 15 16 17 17 18 19 20 20 21 21 21 22 22 22 23 23 23 23 23 24 25 24 25 25 25 26 26 26 26 26 26 26 27 27
11 11 11 12 12 13 13 14 14 14 15 16 17 18 19 19 20 21 21 22 22 22 22 23 24 25 25 25 25 25 25 25 26 26 27 27 27 27 27 27 28 28 29
12 12 12 13 14 14 15 15 15 16 17 17 18 18 19 20 21 21 22 23 23 24 24 24 25 26 26 26 26 26 26 26 26 26 27 27 28 29 28 29 29 29 29
13 14 14 14 14 15 15 16 16 17 17 18 19 19 20 21 22 22 22 23 24 25 26 26 26 26 27 26 27 27 27 28 27 27 28 28 29 30 30 30 30 30 31
15 15 16 15 16 16 17 17 18 17 18 19 20 21 21 21 22 23 23 23 24 25 26 27 27 28 28 28 28 29 29 29 29 29 28 28 29 30 30 31 31 32 32
17 17 17 17 17 17 18 18 18 19 19 20 21 22 22 22 23 23 24 25 25 26 26 27 27 27 28 28 29 29 30 30 29 30 29 30 30 31 31 32 32 33 34
19 18 18 19 18 19 19 18 19 20 21 21 22 23 23 24 24 24 25 26 27 27 27 27 27 27 28 29 30 30 30 30 29 29 30 31 31 31 32 33 33 34 35
20 20 20 20 20 20 20 20 20 21 21 22 24 24 24 24 24 25 26 27 27 27 27 27 28 28 28 29 30 30 30 30 30 30 31 32 32 32 32 32 33 34 34
22 22 21 21 22 22 21 21 21 21 22 22 23 23 24 24 25 26 26 26 27 27 27 28 29 29 30 31 31 32 31 31 32 32 33 33 33 33 33 34 34 34 34
25 24 24 23 23 23 23 23 23 23 23 23 23 24 24 25 25 26 26 26 26 27 28 28 29 30 31 31 31 31 31 32 32 32 33 34 34 35 35 35 35 35 35
27 27 26 26 25 24 25 26 25 25 24 24 24 24 25 25 26 26 27 27 28 28 29 30 31 32 32 32 32 32 33 33 33 33 33 34 35 35 35 35 36 36 36